Location: Arezzo
(43.4170°N, 11.8830°E)
Time: 20:35:30
(UTC+01:00)

STARLINK-2709 - Pass Details

Date: 01 November 2021
Orbit: 546 x 548 km, 53.1° (Epoch: 01 December)

Event Time Altitude Azimuth Distance (km) Brightness Sun altitude
Exits shadow 03:48:48 18° 53° (NE) 1,396 6.2 -32.9°
Drops below altitude 10° 03:49:53 10° 54° (NE) 1,820 7.0 -32.7°
Sets 03:52:07 0° 55° (NE) 2,717 8.1 -32.3°
